• Em Portugal
  • Lista de países
  • Para 7 dias
  • Temperatura da água
  • Mapas de satélite
  • Mapa do tempo
  • Widgets de tempo
  • user-avatar
    Iniciar Sessão

    Previsão horária em Slavyansk

    Hoje, 22 Outubro, Segunda-feira

    Tempo Temperatura Precipitação Vento Pressão Humidade
    00:00 +12°C° 0 mm 3 m/s 758 mmHg 86%
    01:00 +12°C° 0 mm 3 m/s 758 mmHg 88%
    02:00 +11°C° 0 mm 3 m/s 758 mmHg 89%
    03:00 +10°C° 0 mm 2 m/s 758 mmHg 92%
    04:00 +10°C° 0 mm 2 m/s 758 mmHg 91%
    05:00 +10°C° 0 mm 3 m/s 758 mmHg 91%
    06:00 +10°C° 0 mm 3 m/s 758 mmHg 91%
    07:00 +11°C° 0.1 mm 3 m/s 758 mmHg 88%
    08:00 +11°C° 0.1 mm 3 m/s 758 mmHg 86%
    09:00 +12°C° 0.1 mm 3 m/s 758 mmHg 84%
    10:00 +12°C° 0.8 mm 3 m/s 758 mmHg 83%
    11:00 +12°C° 0.8 mm 3 m/s 758 mmHg 83%
    12:00 +13°C° 0.8 mm 3 m/s 758 mmHg 83%
    13:00 +13°C° 0.8 mm 3 m/s 758 mmHg 83%
    14:00 +13°C° 0.8 mm 3 m/s 758 mmHg 83%
    15:00 +14°C° 0.8 mm 2 m/s 757 mmHg 83%
    16:00 +14°C° 0.4 mm 2 m/s 757 mmHg 84%
    17:00 +14°C° 0.4 mm 2 m/s 757 mmHg 85%
    18:00 +14°C° 0.4 mm 2 m/s 757 mmHg 86%
    19:00 +14°C° 0.1 mm 2 m/s 757 mmHg 86%
    20:00 +14°C° 0.1 mm 2 m/s 757 mmHg 86%
    21:00 +14°C° 0.1 mm 2 m/s 756 mmHg 86%
    22:00 +13°C° 0 mm 2 m/s 756 mmHg 86%
    23:00 +13°C° 0 mm 2 m/s 756 mmHg 86%

    Amanhã, 23 Outubro, Terça-feira

    Tempo Temperatura Precipitação Vento Pressão Humidade
    00:00 +13°C° 0 mm 2 m/s 756 mmHg 86%
    01:00 +13°C° 0.1 mm 2 m/s 755 mmHg 87%
    02:00 +12°C° 0.1 mm 2 m/s 755 mmHg 88%
    03:00 +11°C° 0.1 mm 3 m/s 755 mmHg 89%
    04:00 +10°C° 0 mm 3 m/s 755 mmHg 90%
    05:00 +10°C° 0 mm 3 m/s 755 mmHg 90%
    06:00 +9°C° 0 mm 3 m/s 754 mmHg 90%
    07:00 +9°C° 0 mm 3 m/s 754 mmHg 87%
    08:00 +10°C° 0 mm 3 m/s 754 mmHg 84%
    09:00 +10°C° 0 mm 3 m/s 755 mmHg 81%
    10:00 +11°C° 0 mm 4 m/s 754 mmHg 72%
    11:00 +12°C° 0 mm 4 m/s 754 mmHg 64%
    12:00 +13°C° 0 mm 4 m/s 754 mmHg 56%
    13:00 +13°C° 0 mm 4 m/s 754 mmHg 51%
    14:00 +13°C° 0 mm 5 m/s 753 mmHg 46%
    15:00 +14°C° 0 mm 5 m/s 753 mmHg 41%
    16:00 +13°C° 0 mm 4 m/s 752 mmHg 44%
    17:00 +12°C° 0 mm 4 m/s 752 mmHg 47%
    18:00 +11°C° 0 mm 3 m/s 752 mmHg 51%
    19:00 +10°C° 0 mm 3 m/s 752 mmHg 53%
    20:00 +10°C° 0 mm 3 m/s 751 mmHg 55%
    21:00 +9°C° 0 mm 3 m/s 751 mmHg 57%
    22:00 +9°C° 0 mm 3 m/s 751 mmHg 59%
    23:00 +8°C° 0 mm 3 m/s 750 mmHg 60%

    Depois de amanhã, 24 Outubro, Quarta-feira

    Tempo Temperatura Precipitação Vento Pressão Humidade
    00:00 +7°C° 0 mm 4 m/s 750 mmHg 62%
    01:00 +7°C° 0 mm 4 m/s 749 mmHg 62%
    02:00 +7°C° 0 mm 4 m/s 749 mmHg 63%
    03:00 +7°C° 0 mm 5 m/s 748 mmHg 63%
    04:00 +7°C° 0 mm 5 m/s 747 mmHg 63%
    05:00 +7°C° 0 mm 5 m/s 746 mmHg 62%
    06:00 +7°C° 0 mm 5 m/s 746 mmHg 62%
    07:00 +8°C° 0.3 mm 7 m/s 745 mmHg 65%
    08:00 +9°C° 0.3 mm 8 m/s 744 mmHg 68%
    09:00 +10°C° 0.3 mm 9 m/s 743 mmHg 71%
    10:00 +10°C° 0.9 mm 9 m/s 743 mmHg 73%
    11:00 +10°C° 0.9 mm 9 m/s 742 mmHg 76%
    12:00 +11°C° 0.9 mm 9 m/s 741 mmHg 78%
    13:00 +11°C° 0.8 mm 8 m/s 741 mmHg 77%
    14:00 +11°C° 0.8 mm 8 m/s 740 mmHg 77%
    15:00 +11°C° 0.8 mm 7 m/s 740 mmHg 76%
    16:00 +11°C° 0.5 mm 7 m/s 739 mmHg 79%
    17:00 +10°C° 0.5 mm 6 m/s 738 mmHg 81%
    18:00 +10°C° 0.5 mm 6 m/s 738 mmHg 84%
    19:00 +10°C° 0.5 mm 6 m/s 737 mmHg 83%
    20:00 +10°C° 0.5 mm 6 m/s 737 mmHg 83%
    21:00 +11°C° 0.5 mm 7 m/s 736 mmHg 83%
    22:00 +10°C° 0.1 mm 7 m/s 736 mmHg 83%
    23:00 +10°C° 0.1 mm 7 m/s 735 mmHg 83%

    25 Outubro, Quinta-feira

    Tempo Temperatura Precipitação Vento Pressão Humidade
    00:00 +10°C° 0.1 mm 6 m/s 735 mmHg 83%
    01:00 +9°C° 1.5 mm 7 m/s 735 mmHg 83%
    02:00 +9°C° 1.5 mm 7 m/s 735 mmHg 82%
    03:00 +8°C° 1.5 mm 7 m/s 734 mmHg 81%
    04:00 +6°C° 0 mm 7 m/s 735 mmHg 78%
    05:00 +5°C° 0 mm 7 m/s 735 mmHg 75%
    06:00 +5°C° 0 mm 7 m/s 735 mmHg 71%
    07:00 +5°C° 0 mm 8 m/s 736 mmHg 71%
    08:00 +5°C° 0 mm 8 m/s 736 mmHg 71%
    09:00 +5°C° 0 mm 9 m/s 737 mmHg 71%
    10:00 +6°C° 0 mm 9 m/s 737 mmHg 69%
    11:00 +6°C° 0 mm 9 m/s 738 mmHg 67%
    12:00 +7°C° 0 mm 9 m/s 738 mmHg 65%
    13:00 +7°C° 0 mm 8 m/s 738 mmHg 64%
    14:00 +7°C° 0 mm 8 m/s 739 mmHg 64%
    15:00 +7°C° 0 mm 8 m/s 739 mmHg 63%
    16:00 +6°C° 0 mm 7 m/s 740 mmHg 63%
    17:00 +7°C° 0 mm 6 m/s 740 mmHg 64%
    18:00 +7°C° 0 mm 6 m/s 740 mmHg 65%
    19:00 +7°C° 0.1 mm 6 m/s 741 mmHg 68%
    20:00 +5°C° 0.1 mm 6 m/s 741 mmHg 71%
    21:00 +5°C° 0.1 mm 6 m/s 742 mmHg 73%
    22:00 +6°C° 0.1 mm 5 m/s 742 mmHg 75%
    23:00 +5°C° 0.1 mm 5 m/s 742 mmHg 77%

    26 Outubro, Sexta-feira

    Tempo Temperatura Precipitação Vento Pressão Humidade
    00:00 +5°C° 0.1 mm 4 m/s 742 mmHg 79%
    01:00 +4°C° 0 mm 4 m/s 743 mmHg 79%
    02:00 +4°C° 0 mm 4 m/s 743 mmHg 80%
    03:00 +3°C° 0 mm 5 m/s 743 mmHg 80%
    04:00 +3°C° 0 mm 4 m/s 744 mmHg 81%
    05:00 +3°C° 0 mm 4 m/s 744 mmHg 82%
    06:00 +1°C° 0 mm 4 m/s 745 mmHg 82%
    07:00 +3°C° 0 mm 4 m/s 745 mmHg 80%
    08:00 +4°C° 0 mm 4 m/s 746 mmHg 77%
    09:00 +4°C° 0 mm 4 m/s 746 mmHg 74%
    10:00 +5°C° 0 mm 4 m/s 747 mmHg 68%
    11:00 +6°C° 0 mm 4 m/s 747 mmHg 62%
    12:00 +7°C° 0 mm 5 m/s 747 mmHg 56%
    13:00 +8°C° 0 mm 5 m/s 748 mmHg 53%
    14:00 +8°C° 0 mm 5 m/s 748 mmHg 51%
    15:00 +8°C° 0 mm 5 m/s 748 mmHg 48%
    16:00 +7°C° 0 mm 5 m/s 749 mmHg 52%
    17:00 +7°C° 0 mm 4 m/s 750 mmHg 56%
    18:00 +6°C° 0 mm 4 m/s 751 mmHg 60%
    19:00 +5°C° 0 mm 4 m/s 752 mmHg 62%
    20:00 +5°C° 0 mm 3 m/s 752 mmHg 65%
    21:00 +4°C° 0 mm 3 m/s 753 mmHg 67%
    22:00 +4°C° 0 mm 3 m/s 754 mmHg 69%
    23:00 +4°C° 0 mm 4 m/s 755 mmHg 71%

    27 Outubro, Sábado

    Tempo Temperatura Precipitação Vento Pressão Humidade
    00:00 +4°C° 0 mm 4 m/s 755 mmHg 73%
    01:00 +4°C° 0 mm 3 m/s 756 mmHg 76%
    02:00 +3°C° 0 mm 3 m/s 756 mmHg 78%
    03:00 +3°C° 0 mm 3 m/s 757 mmHg 81%
    04:00 +3°C° 0 mm 3 m/s 758 mmHg 82%
    05:00 +4°C° 0 mm 2 m/s 758 mmHg 83%
    06:00 +3°C° 0 mm 2 m/s 759 mmHg 85%
    07:00 +3°C° 0 mm 3 m/s 759 mmHg 82%
    08:00 +4°C° 0 mm 3 m/s 759 mmHg 79%
    09:00 +5°C° 0 mm 3 m/s 760 mmHg 77%
    10:00 +7°C° 0 mm 4 m/s 760 mmHg 69%
    11:00 +8°C° 0 mm 4 m/s 760 mmHg 61%
    12:00 +10°C° 0 mm 5 m/s 760 mmHg 54%
    13:00 +10°C° 0 mm 5 m/s 760 mmHg 54%
    14:00 +10°C° 0 mm 5 m/s 759 mmHg 54%
    15:00 +12°C° 0 mm 4 m/s 759 mmHg 53%
    16:00 +12°C° 0 mm 4 m/s 759 mmHg 56%
    17:00 +12°C° 0 mm 5 m/s 759 mmHg 59%
    18:00 +12°C° 0 mm 5 m/s 759 mmHg 61%
    19:00 +12°C° 0 mm 5 m/s 759 mmHg 62%
    20:00 +11°C° 0 mm 6 m/s 759 mmHg 63%
    21:00 +11°C° 0 mm 7 m/s 759 mmHg 64%
    22:00 +11°C° 0 mm 7 m/s 759 mmHg 66%
    23:00 +11°C° 0 mm 7 m/s 759 mmHg 69%

    28 Outubro, Domingo

    Tempo Temperatura Precipitação Vento Pressão Humidade
    00:00 +11°C° 0 mm 6 m/s 759 mmHg 72%
    01:00 +10°C° 0 mm 6 m/s 759 mmHg 76%
    02:00 +10°C° 0 mm 6 m/s 759 mmHg 79%
    03:00 +10°C° 0 mm 5 m/s 759 mmHg 83%
    04:00 +10°C° 0 mm 5 m/s 759 mmHg 85%
    05:00 +9°C° 0 mm 6 m/s 759 mmHg 88%
    06:00 +9°C° 0 mm 6 m/s 759 mmHg 90%
    07:00 +10°C° 0 mm 6 m/s 759 mmHg 87%
    08:00 +11°C° 0 mm 7 m/s 760 mmHg 85%
    09:00 +12°C° 0 mm 8 m/s 760 mmHg 82%
    10:00 +13°C° 0 mm 8 m/s 760 mmHg 74%
    11:00 +16°C° 0 mm 8 m/s 760 mmHg 66%
    12:00 +18°C° 0 mm 8 m/s 760 mmHg 58%
    13:00 +18°C° 0 mm 8 m/s 759 mmHg 56%
    14:00 +20°C° 0 mm 8 m/s 759 mmHg 54%
    15:00 +20°C° 0 mm 8 m/s 759 mmHg 51%
    16:00 +18°C° 0 mm 7 m/s 759 mmHg 57%
    17:00 +17°C° 0 mm 7 m/s 759 mmHg 62%
    18:00 +16°C° 0 mm 6 m/s 759 mmHg 68%
    19:00 +15°C° 0 mm 6 m/s 759 mmHg 71%
    20:00 +15°C° 0 mm 7 m/s 759 mmHg 73%
    21:00 +15°C° 0 mm 7 m/s 759 mmHg 76%
    22:00 +14°C° 0 mm 6 m/s 759 mmHg 77%
    23:00 +14°C° 0 mm 6 m/s 759 mmHg 79%
    Mostrar mais